[[{"header":{"parameterUnit":"m.s-1","parameterCategory":2,"la1":30.2991,"la2":30.254,"lo1":-89.0895,"lo2":-89.0444,"dy":0.0017,"dx":0.0017,"nx":28,"ny":28,"refTime":"2024-08-11T03:00:00:Z","depth":"0","parameterNumber":2,"parameterNumberName":"U-component_of_CURRENTS"},"data":[0,0,0,0,0,0,0,0,0,0,0,0,0,0,0,0,0,0,0,0,0,0,0,0,0,0,0,0,0,0,0,0,0,0,0,0,0,0,0,0,0,0,0,0,0,0,0,0,0,0,0,0,0,0,0,0,0,0,0.1774,0.1774,0,0.1712,0.1711,0.171,0.1647,0.1647,0.1647,0.1646,0.158,0.1579,0.1578,0,0,0,0,0,0,0,0,0,0,0,0,0,0.1794,0.1794,0.1774,0.1774,0.1773,0.1712,0.1711,0.1709,0.1648,0.1647,0.1647,0.1646,0.1581,0.1579,0.1577,0,0,0,0,0,0,0,0,0,0,0,0,0,0.1759,0.1794,0.1774,0.1739,0.1735,0.1712,0.1711,0.1709,0.1648,0.1647,0.1646,0.1646,0.1581,0.1579,0.1577,0.1576,0,0,0.1571,0.157,0,0,0,0,0,0,0,0,0.1761,0.1758,0.1744,0.1741,0.1737,0.1691,0.1694,0.1666,0.1648,0.1676,0.1646,0.1646,0.1621,0.1615,0.1598,0.1572,0.157,0.1571,0.1569,0.1568,0.1568,0,0,0,0,0,0,0,0.1764,0.176,0.1744,0.1744,0.174,0.1711,0.1705,0.1688,0.1648,0.1673,0.167,0.1671,0.1618,0.16,0.1596,0.1569,0.1571,0.1569,0.1567,0.1567,0.1601,0.1603,0,0,0,0,0,0,0.1785,0.1763,0.1747,0.1743,0.1754,0.1712,0.1705,0.1703,0.1648,0.1641,0.1672,0.1668,0.1604,0.1599,0.1594,0.164,0.1568,0.1566,0.1565,0.1599,0.1602,0.1604,0,0,0,0,0,0,0.1785,0.1784,0.1749,0.1756,0.175,0.1713,0.171,0.1702,0.1689,0.1648,0.1639,0.1669,0.1603,0.1596,0.1585,0.1635,0.1565,0.1564,0.1596,0.16,0.1603,0.17,0,0,0,0,0,0,0.1786,0.1784,0.1789,0.1757,0.175,0.1765,0.1711,0.1701,0.1693,0.1688,0.1643,0.1636,0.1602,0.1589,0.1583,0.1631,0.1562,0.1594,0.1598,0.1602,0.1694,0.1706,0.1717,0,0,0,0,0,0.1787,0.1811,0.1789,0.1787,0.1758,0.1767,0.1762,0.1729,0.1694,0.171,0.1664,0.1638,0.1612,0.1588,0.1581,0.1629,0.1592,0.1597,0.1601,0.1689,0.1704,0.1716,0,0,0,0,0,0,0.182,0.1806,0.1782,0.1797,0.1793,0.1759,0.1773,0.1739,0.1712,0.1701,0.1647,0.1638,0.1663,0.1627,0.1602,0.1655,0.1606,0.1609,0.1675,0.1688,0.1699,0.1746,0.156,0,0,0,0,0,0.183,0.1852,0.1824,0.1845,0.1843,0.1804,0.1801,0.1777,0.175,0.1737,0.1704,0.1677,0.1678,0.1665,0.1664,0.1669,0.1702,0.1703,0.1714,0.1724,0.176,0.1853,0.1877,0.162,0.162,0.162,0,0,0.1854,0.1849,0.1861,0.1855,0.1844,0.1851,0.1801,0.1811,0.1815,0.1736,0.1736,0.1722,0.1693,0.1716,0.1723,0.1686,0.1815,0.173,0.1738,0.177,0.1861,0.1886,0.1909,0.1623,0.1623,0.1622,0,0,0.1914,0.1904,0.1933,0.1931,0.1924,0.1903,0.191,0.188,0.187,0.1861,0.1826,0.1845,0.1805,0.1819,0.1813,0.1887,0.1885,0.1877,0.1953,0.2042,0.2065,0.2085,0.2161,0.2187,0.1865,0.1866,0.1866,0,0.1944,0.1952,0.1947,0.1964,0.1964,0.193,0.1944,0.1939,0.1909,0.1915,0.1879,0.1891,0.187,0.1922,0.1947,0.1919,0.1956,0.1897,0.206,0.208,0.2099,0.2172,0.22,0.1871,0.187,0.187,0.1869,0,0.1995,0.2008,0.2033,0.2036,0.2046,0.2061,0.2046,0.2056,0.2028,0.2016,0.2064,0.2045,0.2054,0.2058,0.2016,0.2139,0.2119,0.2078,0.2028,0.2131,0.2201,0.2228,0.1878,0.1876,0.1875,0.1874,0,0,0.2042,0.2063,0.2065,0.2067,0.2074,0.208,0.2119,0.2134,0.2151,0.2157,0.2196,0.2229,0.2226,0.2225,0.2201,0.227,0.2432,0.2229,0.2231,0.231,0.263,0.2576,0.26,0.2411,0.2416,0.2421,0.2625,0,0.2075,0.2107,0.2112,0.2144,0.2153,0.2151,0.2184,0.2203,0.221,0.2244,0.2278,0.2304,0.2285,0.2286,0.2372,0.2401,0.2508,0.2381,0.2514,0.2519,0.2463,0.2631,0.2571,0.2745,0.2651,0.2656,0.2659,0,0.2096,0.2115,0.2144,0.2174,0.2178,0.2193,0.2228,0.2253,0.2315,0.2325,0.2391,0.24,0.2508,0.2467,0.2654,0.2566,0.2638,0.2673,0.268,0.2621,0.2516,0.2626,0.2797,0.2673,0.27,0.2697,0.2694,0,0.209,0.2129,0.2147,0.2153,0.2188,0.2206,0.2222,0.2274,0.2291,0.238,0.2398,0.2529,0.256,0.2702,0.2762,0.2726,0.2954,0.2905,0.2948,0.2943,0.2919,0.2902,0.2996,0.3106,0.3106,0.3105,0.3105,0,0.2101,0.2114,0.2138,0.2144,0.2164,0.2196,0.2224,0.2263,0.232,0.2354,0.2434,0.2486,0.262,0.273,0.2827,0.2967,0.302,0.3029,0.302,0.2947,0.2931,0.2837,0.276,0.3113,0.3111,0.311,0.3109,0,0.2082,0.2103,0.2117,0.215,0.2157,0.2163,0.2191,0.221,0.2275,0.2326,0.2354,0.2472,0.2623,0.275,0.2952,0.3016,0.3079,0.3202,0.3094,0.3071,0.2988,0.2917,0.293,0.2845,0.333,0.333,0.333,0,0.2076,0.208,0.2098,0.209,0.2097,0.211,0.2115,0.2176,0.2199,0.2312,0.2336,0.2482,0.2577,0.2842,0.3007,0.3214,0.3083,0.3252,0.3196,0.3034,0.2951,0.2787,0.2702,0.321,0.3209,0.3208,0.3208,0,0.2048,0.2044,0.2042,0.2035,0.203,0.2028,0.2048,0.206,0.214,0.2195,0.2284,0.2371,0.2629,0.2794,0.3029,0.3158,0.3067,0.3244,0.313,0.2937,0.2719,0.2612,0.2999,0.3202,0.3203,0.3203,0.3203,0.3204,0.2001,0.1983,0.1969,0.1953,0.1948,0.1932,0.1917,0.1961,0.1995,0.2073,0.2197,0.2315,0.2574,0.2906,0.3001,0.31,0.3046,0.3067,0.3023,0.2892,0.2727,0.309,0.3225,0.3226,0.3227,0.3227,0.3228,0,0.1923,0.1904,0.1888,0.1858,0.1817,0.1846,0.1853,0.1837,0.1864,0.1991,0.2076,0.2314,0.2496,0.2711,0.2929,0.2884,0.279,0.2801,0.2577,0.2528,0.2932,0.2838,0.2829,0.2829,0.2829,0.2829,0.2829,0.2829,0.1875,0.1823,0.1814,0.1728,0.1706,0.1651,0.164,0.1654,0.1727,0.1838,0.1969,0.2116,0.2364,0.2574,0.2632,0.262,0.2393,0.2314,0.2245,0.2534,0.2554,0.2573,0.2467,0.238,0.2379,0.1769,0.1764,0.1761]},{"header":{"parameterUnit":"m.s-1","parameterCategory":2,"la1":30.2991,"la2":30.254,"lo1":-89.0895,"lo2":-89.0444,"dy":0.0017,"dx":0.0017,"nx":28,"ny":28,"refTime":"2024-08-11T03:00:00:Z","depth":"0","parameterNumber":3,"parameterNumberName":"V-component_of_CURRENTS"},"data":[0,0,0,0,0,0,0,0,0,0,0,0,0,0,0,0,0,0,0,0,0,0,0,0,0,0,0,0,0,0,0,0,0,0,0,0,0,0,0,0,0,0,0,0,0,0,0,0,0,0,0,0,0,0,0,0,0,0,-0.0306,-0.0307,0,-0.0375,-0.0376,-0.0377,-0.047,-0.0471,-0.0473,-0.0475,-0.0575,-0.0576,-0.0577,0,0,0,0,0,0,0,0,0,0,0,0,0,-0.0272,-0.0272,-0.0306,-0.0307,-0.0308,-0.0375,-0.0376,-0.0377,-0.047,-0.0472,-0.0474,-0.0475,-0.0575,-0.0576,-0.0578,0,0,0,0,0,0,0,0,0,0,0,0,0,-0.0307,-0.0272,-0.0306,-0.0363,-0.0369,-0.0375,-0.0376,-0.0377,-0.0469,-0.0472,-0.0474,-0.0476,-0.0574,-0.0576,-0.0578,-0.0538,0,0,-0.0583,-0.0584,0,0,0,0,0,0,0,0,-0.0305,-0.0308,-0.0354,-0.0359,-0.0366,-0.0417,-0.0401,-0.0433,-0.0468,-0.043,-0.0475,-0.0478,-0.0524,-0.053,-0.0536,-0.0543,-0.0547,-0.0583,-0.0584,-0.0585,-0.0585,0,0,0,0,0,0,0,-0.0302,-0.0306,-0.0332,-0.0355,-0.0362,-0.0392,-0.0399,-0.0407,-0.0462,-0.0433,-0.0441,-0.0449,-0.0528,-0.0534,-0.0539,-0.0549,-0.0583,-0.0585,-0.0586,-0.0586,-0.0474,-0.047,0,0,0,0,0,0,-0.0292,-0.0303,-0.033,-0.0334,-0.0342,-0.039,-0.0398,-0.0397,-0.0461,-0.0474,-0.0447,-0.0453,-0.053,-0.0537,-0.0543,-0.0435,-0.0585,-0.0586,-0.0587,-0.0478,-0.0473,-0.0469,0,0,0,0,0,0,-0.0291,-0.0293,-0.0327,-0.0322,-0.0329,-0.0388,-0.0386,-0.0397,-0.0407,-0.0472,-0.0485,-0.0446,-0.0532,-0.054,-0.0537,-0.0443,-0.0587,-0.0589,-0.0482,-0.0476,-0.0471,-0.0261,0,0,0,0,0,0,-0.0289,-0.0292,-0.0269,-0.0321,-0.0329,-0.0296,-0.0384,-0.0397,-0.0409,-0.0418,-0.0474,-0.0486,-0.0534,-0.0534,-0.0539,-0.0448,-0.059,-0.0487,-0.048,-0.0473,-0.0273,-0.0249,-0.0228,0,0,0,0,0,-0.0288,-0.0228,-0.0267,-0.027,-0.0301,-0.0293,-0.0297,-0.0349,-0.0406,-0.0374,-0.043,-0.0485,-0.0489,-0.0533,-0.054,-0.0446,-0.0491,-0.0482,-0.0473,-0.0284,-0.0254,-0.0229,0,0,0,0,0,0,-0.018,-0.0234,-0.0278,-0.0234,-0.0255,-0.0308,-0.0271,-0.0334,-0.0353,-0.0358,-0.0451,-0.0463,-0.0415,-0.0462,-0.0509,-0.0389,-0.0491,-0.0483,-0.0344,-0.0317,-0.0295,-0.0248,-0.0591,0,0,0,0,0,-0.0151,-0.0127,-0.0189,-0.0144,-0.0148,-0.0215,-0.0217,-0.0255,-0.029,-0.0303,-0.0352,-0.0382,-0.0378,-0.0379,-0.0383,-0.033,-0.0368,-0.0268,-0.0245,-0.0225,-0.0189,-0.0173,-0.0146,-0.0439,-0.0439,-0.0439,0,0,-0.0088,-0.0119,-0.0099,-0.012,-0.0137,-0.0098,-0.0219,-0.0193,-0.016,-0.0306,-0.0259,-0.0306,-0.0347,-0.0281,-0.0261,-0.0312,-0.0161,-0.0214,-0.0197,-0.0171,-0.0161,-0.0133,-0.0108,-0.0433,-0.0434,-0.0435,0,0,0.0061,0.0019,0.0089,0.0076,0.0055,0.0015,0.0023,-0.0024,-0.0039,-0.0016,-0.0097,-0.0086,-0.0103,-0.0096,-0.0101,0.0047,-0.0043,0.0041,0.0196,0.0212,0.0236,0.0256,0.0244,0.0262,0.0054,0.0055,0.0055,0,0.0144,0.0186,0.012,0.0176,0.0177,0.0073,0.0141,0.0135,0.0094,0.0095,0.0036,0.0041,0.0004,0.0088,0.0141,0.0105,0.0071,0.0092,0.0242,0.0261,0.0279,0.026,0.0277,0.0066,0.0065,0.0063,0.0062,0,0.0327,0.0352,0.0403,0.0421,0.0431,0.0473,0.0431,0.0445,0.039,0.0357,0.0406,0.0354,0.0347,0.0358,0.0293,0.0414,0.0336,0.0265,0.0171,0.0321,0.0292,0.0306,0.0082,0.0078,0.0074,0.0072,0,0,0.051,0.0524,0.0535,0.0538,0.0541,0.055,0.0641,0.0655,0.0679,0.0671,0.0713,0.0747,0.0676,0.0669,0.0598,0.0626,0.0719,0.051,0.0505,0.0496,0.073,0.0654,0.066,0.0656,0.066,0.0663,0.0658,0,0.0659,0.0756,0.0747,0.084,0.0863,0.0813,0.0883,0.089,0.0867,0.0889,0.0868,0.0877,0.0806,0.0786,0.0823,0.0723,0.0766,0.0726,0.0588,0.0585,0.0498,0.0679,0.0674,0.0668,0.0671,0.0673,0.0674,0,0.081,0.0837,0.0935,0.0948,0.0964,0.1019,0.1044,0.1096,0.1123,0.1107,0.1137,0.1074,0.1126,0.1022,0.1014,0.0978,0.0902,0.0833,0.0829,0.0701,0.0537,0.052,0.0692,0.0563,0.0694,0.0693,0.0691,0,0.0853,0.0949,0.0999,0.101,0.1047,0.1093,0.112,0.1155,0.1177,0.1228,0.1229,0.1272,0.1243,0.1215,0.1079,0.1044,0.1034,0.0953,0.0833,0.0822,0.0769,0.0748,0.0804,0.0992,0.0992,0.0992,0.0992,0,0.0937,0.0974,0.1012,0.1026,0.1092,0.1123,0.1192,0.1224,0.1279,0.1308,0.1323,0.1338,0.1285,0.1245,0.1152,0.1039,0.1094,0.0916,0.0847,0.0839,0.0826,0.0664,0.0579,0.0992,0.0992,0.0992,0.0992,0,0.0929,0.0963,0.1006,0.107,0.1091,0.1125,0.1196,0.1241,0.1297,0.1339,0.1355,0.1381,0.1343,0.1274,0.1192,0.1095,0.0936,0.0949,0.0932,0.0864,0.0635,0.0561,0.0555,0.0498,0.0853,0.0851,0.085,0,0.0917,0.0939,0.1,0.102,0.1043,0.1101,0.1142,0.1224,0.1269,0.1346,0.1366,0.1366,0.1357,0.1239,0.1109,0.099,0.0875,0.0867,0.0832,0.0682,0.055,0.0512,0.0463,0.0836,0.0835,0.0834,0.0833,0,0.0885,0.0903,0.0929,0.0976,0.1018,0.1077,0.1147,0.1185,0.1278,0.1323,0.1371,0.1383,0.1299,0.1197,0.1038,0.0942,0.0782,0.0839,0.0714,0.0601,0.0539,0.0427,0.0745,0.0824,0.0825,0.0826,0.0826,0.0826,0.0836,0.0844,0.0881,0.0925,0.098,0.1052,0.109,0.1169,0.1239,0.132,0.135,0.1386,0.1286,0.1094,0.0926,0.0663,0.0679,0.0571,0.051,0.0498,0.0422,0.0711,0.0681,0.0681,0.0681,0.0681,0.0681,0,0.0769,0.0797,0.0834,0.0894,0.0945,0.0997,0.1091,0.113,0.1194,0.1297,0.1345,0.1365,0.1153,0.0962,0.0642,0.0397,0.0336,0.0264,0.0234,0.021,0.05,0.0475,0.0364,0.0364,0.0364,0.0365,0.0365,0.0365,0.0729,0.0739,0.0776,0.0841,0.0895,0.0955,0.1003,0.1064,0.1149,0.126,0.1342,0.1425,0.138,0.0732,0.0251,0.0126,-0.0037,-0.0081,-0.0168,0.0028,0.0053,0.0076,0.0037,-0.0164,-0.0165,-0.0408,-0.0411,-0.0413]}],[{"header":{"parameterUnit":"m.s-1","parameterCategory":2,"la1":30.2991,"la2":30.254,"lo1":-89.0895,"lo2":-89.0444,"dy":0.0017,"dx":0.0017,"nx":28,"ny":28,"refTime":"2024-08-11T03:00:00:Z","depth":"2","parameterNumber":2,"parameterNumberName":"U-component_of_CURRENTS"},"data":[0,0,0,0,0,0,0,0,0,0,0,0,0,0,0,0,0,0,0,0,0,0,0,0,0,0,0,0,0,0,0,0,0,0,0,0,0,0,0,0,0,0,0,0,0,0,0,0,0,0,0,0,0,0,0,0,0,0,0.1547,0.1547,0,0.1551,0.1551,0.1551,0.1532,0.1532,0.1532,0.1531,0.1486,0.1485,0.1484,0,0,0,0,0,0,0,0,0,0,0,0,0,0.15,0.1501,0.1547,0.1547,0.1548,0.1551,0.1551,0.1551,0.1532,0.1532,0.1531,0.1531,0.1486,0.1485,0.1484,0,0,0,0,0,0,0,0,0,0,0,0,0,0.1511,0.1501,0.1547,0.1541,0.1541,0.1551,0.1551,0.155,0.1532,0.1532,0.1531,0.1531,0.1486,0.1485,0.1483,0.1483,0,0,0.1479,0.1478,0,0,0,0,0,0,0,0,0.1511,0.1513,0.1541,0.1541,0.1541,0.1543,0.1518,0.1526,0.1532,0.1532,0.1531,0.1531,0.1502,0.15,0.1498,0.1481,0.1479,0.1479,0.1478,0.1477,0.1477,0,0,0,0,0,0,0,0.151,0.1512,0.1546,0.1542,0.1542,0.153,0.1531,0.1519,0.1517,0.1532,0.1532,0.1537,0.1501,0.1499,0.1497,0.1478,0.1479,0.1478,0.1477,0.1476,0.1524,0.1526,0,0,0,0,0,0,0.1517,0.1512,0.1546,0.1546,0.1528,0.1532,0.1533,0.1541,0.1518,0.1515,0.1537,0.1536,0.1502,0.1498,0.1495,0.1551,0.1477,0.1476,0.1475,0.1521,0.1524,0.1526,0,0,0,0,0,0,0.1516,0.152,0.1545,0.1531,0.1534,0.1533,0.1542,0.1541,0.1552,0.1523,0.1518,0.1551,0.1502,0.1497,0.1508,0.1546,0.1475,0.1474,0.1519,0.1522,0.1525,0.1625,0,0,0,0,0,0,0.1515,0.152,0.1536,0.1532,0.1535,0.1576,0.1543,0.1541,0.1556,0.1555,0.1533,0.1527,0.1501,0.1511,0.1507,0.1543,0.1473,0.1516,0.152,0.1524,0.1619,0.1631,0.1641,0,0,0,0,0,0.1513,0.1549,0.1536,0.1541,0.1554,0.1578,0.158,0.1575,0.1558,0.1579,0.1562,0.1529,0.1534,0.1512,0.1506,0.1543,0.1514,0.1519,0.1524,0.1614,0.1628,0.1641,0,0,0,0,0,0,0.1547,0.155,0.1537,0.1573,0.1582,0.1577,0.1603,0.1587,0.159,0.159,0.155,0.1545,0.1574,0.1546,0.1523,0.157,0.1521,0.1525,0.1591,0.1605,0.1616,0.1613,0.1472,0,0,0,0,0,0.1558,0.1585,0.1579,0.1614,0.1619,0.1609,0.1619,0.1614,0.1612,0.1613,0.1596,0.1584,0.1589,0.1586,0.1585,0.1602,0.1588,0.1626,0.1637,0.1647,0.1643,0.1672,0.1686,0.1542,0.1542,0.1542,0,0,0.1587,0.159,0.1608,0.1623,0.1627,0.1638,0.1615,0.1644,0.1654,0.1608,0.1627,0.1625,0.1605,0.1634,0.1644,0.1614,0.1683,0.1653,0.1661,0.1651,0.1679,0.1693,0.1705,0.1545,0.1545,0.1544,0,0,0.1636,0.1655,0.1674,0.1683,0.1693,0.1688,0.1699,0.17,0.1707,0.1721,0.1701,0.1727,0.1712,0.172,0.1716,0.1788,0.1747,0.1788,0.1834,0.1864,0.1876,0.1886,0.1893,0.1903,0.1787,0.1787,0.1787,0,0.1669,0.1665,0.1689,0.1699,0.1698,0.171,0.1711,0.1737,0.1742,0.1749,0.1741,0.1759,0.1755,0.1789,0.1822,0.1815,0.1811,0.1783,0.1878,0.1888,0.1897,0.1902,0.1911,0.1793,0.1792,0.1791,0.1791,0,0.1696,0.1701,0.1723,0.1725,0.1747,0.1759,0.178,0.1808,0.181,0.1819,0.1862,0.187,0.1873,0.1894,0.1877,0.1942,0.1913,0.1895,0.1842,0.1917,0.1918,0.1926,0.18,0.1798,0.1797,0.1795,0,0,0.1715,0.1732,0.173,0.1711,0.1744,0.1753,0.1807,0.1828,0.1842,0.1891,0.1901,0.1963,0.1973,0.1971,0.1973,0.2008,0.2083,0.198,0.1979,0.1984,0.2134,0.2052,0.2052,0.208,0.2082,0.2083,0.2113,0,0.1701,0.1697,0.1719,0.1717,0.1702,0.1743,0.1781,0.1826,0.1858,0.189,0.1947,0.1972,0.2002,0.2005,0.2057,0.2067,0.2108,0.2076,0.2063,0.2062,0.1977,0.2061,0.1848,0.185,0.212,0.2122,0.2123,0,0.1664,0.1664,0.1652,0.1657,0.1658,0.1684,0.1716,0.1755,0.184,0.1867,0.1937,0.1972,0.2055,0.2054,0.2147,0.2122,0.2141,0.2155,0.2156,0.2045,0.1995,0.1818,0.1854,0.2136,0.2135,0.2134,0.2133,0,0.1581,0.1593,0.1571,0.1576,0.1617,0.1634,0.1665,0.1746,0.178,0.1863,0.189,0.1988,0.2026,0.2093,0.216,0.215,0.2235,0.2217,0.2166,0.2159,0.1956,0.1928,0.2281,0.2281,0.2281,0.2281,0.2281,0,0.1506,0.1488,0.1533,0.1521,0.1526,0.1574,0.16,0.1655,0.1729,0.1788,0.1877,0.1931,0.2039,0.2108,0.216,0.2193,0.2245,0.2185,0.217,0.1985,0.1961,0.2182,0.217,0.2282,0.2282,0.2282,0.2282,0,0.1425,0.1437,0.1427,0.1469,0.1485,0.15,0.1574,0.1611,0.1673,0.1749,0.1782,0.1896,0.1997,0.2088,0.2181,0.2175,0.2219,0.2214,0.1982,0.1939,0.2119,0.2112,0.2153,0.215,0.2148,0.2146,0.2145,0,0.1381,0.1364,0.1405,0.143,0.1458,0.149,0.1534,0.159,0.164,0.1741,0.1782,0.1882,0.1953,0.2037,0.2035,0.2077,0.2196,0.1912,0.1862,0.2129,0.211,0.2107,0.2103,0.1636,0.163,0.1626,0.1622,0,0.1335,0.136,0.138,0.1423,0.1463,0.149,0.1548,0.1558,0.1645,0.1684,0.1758,0.18,0.1854,0.1792,0.182,0.1822,0.1886,0.182,0.2165,0.1702,0.1644,0.1625,0.1638,0.1582,0.1586,0.1589,0.1591,0.1593,0.1345,0.1357,0.1402,0.1443,0.1479,0.1499,0.1501,0.1549,0.1571,0.1576,0.1646,0.1609,0.1609,0.152,0.1522,0.1516,0.1639,0.1582,0.1595,0.1613,0.1549,0.1491,0.1387,0.1389,0.1392,0.1394,0.1396,0,0.1374,0.1401,0.143,0.1461,0.1478,0.151,0.153,0.1496,0.1494,0.1446,0.1427,0.1228,0.1167,0.1235,0.1132,0.1133,0.1112,0.1134,0.1097,0.1134,0.1168,0.1082,0.0796,0.0795,0.0794,0.0794,0,0,0.1405,0.1434,0.1433,0.1454,0.1482,0.1477,0.1474,0.1406,0.1339,0.1156,0.1052,0.1011,0.1102,0.0898,0.0889,0.0845,0.0985,0.0805,0.1269,0.1256,0.129,0.1393,0.1297,0,0,0,0,0]},{"header":{"parameterUnit":"m.s-1","parameterCategory":2,"la1":30.2991,"la2":30.254,"lo1":-89.0895,"lo2":-89.0444,"dy":0.0017,"dx":0.0017,"nx":28,"ny":28,"refTime":"2024-08-11T03:00:00:Z","depth":"2","parameterNumber":3,"parameterNumberName":"V-component_of_CURRENTS"},"data":[0,0,0,0,0,0,0,0,0,0,0,0,0,0,0,0,0,0,0,0,0,0,0,0,0,0,0,0,0,0,0,0,0,0,0,0,0,0,0,0,0,0,0,0,0,0,0,0,0,0,0,0,0,0,0,0,0,0,-0.0026,-0.0027,0,-0.0086,-0.0087,-0.0088,-0.0138,-0.0139,-0.0139,-0.014,-0.0321,-0.0326,-0.033,0,0,0,0,0,0,0,0,0,0,0,0,0,0.0011,0.001,-0.0026,-0.0027,-0.0027,-0.0086,-0.0087,-0.0088,-0.0138,-0.0139,-0.0139,-0.014,-0.032,-0.0325,-0.0331,0,0,0,0,0,0,0,0,0,0,0,0,0,-0.0024,0.001,-0.0026,-0.0058,-0.0062,-0.0086,-0.0087,-0.0088,-0.0138,-0.0139,-0.0139,-0.014,-0.0318,-0.0325,-0.0331,-0.036,0,0,-0.0352,-0.0355,0,0,0,0,0,0,0,0,-0.0022,-0.0026,-0.0053,-0.0056,-0.006,-0.0104,-0.014,-0.0185,-0.0138,-0.0111,-0.014,-0.014,-0.0259,-0.027,-0.0281,-0.0368,-0.0376,-0.0352,-0.0356,-0.0359,-0.0361,0,0,0,0,0,0,0,-0.002,-0.0024,-0.0051,-0.0054,-0.0058,-0.0081,-0.0087,-0.0149,-0.0184,-0.0113,-0.0117,-0.0121,-0.0262,-0.0274,-0.0286,-0.0379,-0.0352,-0.0358,-0.0362,-0.0365,-0.0491,-0.0491,0,0,0,0,0,0,-0.0007,-0.0021,-0.0049,-0.0053,-0.0041,-0.0081,-0.0088,-0.0091,-0.0181,-0.0194,-0.012,-0.0123,-0.0262,-0.0278,-0.0292,-0.0312,-0.0359,-0.0365,-0.0369,-0.0492,-0.0491,-0.049,0,0,0,0,0,0,-0.0006,-0.0009,-0.0047,-0.0037,-0.0044,-0.0081,-0.0084,-0.0091,-0.0117,-0.0184,-0.02,-0.0139,-0.0263,-0.0283,-0.0343,-0.032,-0.0368,-0.0375,-0.0493,-0.0492,-0.0491,-0.0364,0,0,0,0,0,0,-0.0004,-0.0008,-0.0014,-0.0036,-0.0044,-0.0064,-0.0084,-0.0092,-0.0117,-0.0121,-0.0206,-0.0222,-0.0265,-0.0333,-0.035,-0.033,-0.038,-0.0493,-0.0492,-0.0491,-0.0369,-0.0359,-0.0351,0,0,0,0,0,-0.0003,-0.0006,-0.0014,-0.0018,-0.0048,-0.0064,-0.007,-0.01,-0.0117,-0.0126,-0.0175,-0.0221,-0.0337,-0.0338,-0.0358,-0.034,-0.0494,-0.0493,-0.0491,-0.0374,-0.0361,-0.0351,0,0,0,0,0,0,0.0007,-0.0011,-0.0021,-0.0029,-0.0046,-0.0072,-0.008,-0.0104,-0.0148,-0.0154,-0.0224,-0.0243,-0.0284,-0.0336,-0.0335,-0.0373,-0.0419,-0.0422,-0.0323,-0.0312,-0.0303,-0.0283,-0.0385,0,0,0,0,0,0.0008,0.0003,-0.0017,-0.0023,-0.0028,-0.0056,-0.007,-0.0086,-0.0122,-0.0142,-0.0197,-0.0251,-0.0291,-0.0321,-0.0371,-0.0403,-0.0457,-0.0402,-0.0392,-0.0384,-0.0381,-0.0444,-0.044,-0.0486,-0.0486,-0.0486,0,0,0.0015,0.0002,-0.0,-0.0021,-0.0033,-0.0036,-0.0066,-0.0078,-0.0079,-0.0157,-0.0185,-0.023,-0.0294,-0.0315,-0.0337,-0.0358,-0.0396,-0.0382,-0.0374,-0.0377,-0.0442,-0.0438,-0.0434,-0.0485,-0.0485,-0.0485,0,0,0.0022,0.0013,0.0007,0.0001,-0.0016,-0.0026,-0.003,-0.0057,-0.0068,-0.0094,-0.014,-0.0169,-0.0246,-0.0268,-0.0293,-0.027,-0.0347,-0.0287,-0.0222,-0.0281,-0.0278,-0.0276,-0.0321,-0.0324,-0.0278,-0.0277,-0.0277,0,0.0029,0.0011,0.0004,0.0,-0.0005,-0.0019,-0.0024,-0.0024,-0.0068,-0.0076,-0.009,-0.0169,-0.0215,-0.0236,-0.0207,-0.0246,-0.0295,-0.0254,-0.0268,-0.0267,-0.0267,-0.0315,-0.032,-0.0271,-0.0272,-0.0273,-0.0273,0,0.0023,0.0016,0.0017,0.0011,0.0012,0.0006,0.0011,0.001,-0.0001,-0.0012,-0.0036,-0.0081,-0.0128,-0.0132,-0.0157,-0.0169,-0.0208,-0.0249,-0.0291,-0.0254,-0.0307,-0.0314,-0.0262,-0.0264,-0.0266,-0.0268,0,0,0.0003,0.001,0.0006,0.0007,0.0011,0.0013,0.0035,0.0034,0.0038,0.0028,0.0016,0.0001,-0.0018,-0.0047,-0.0081,-0.011,-0.0127,-0.0163,-0.0169,-0.0197,-0.0254,-0.0188,-0.0191,-0.0175,-0.0176,-0.0177,-0.0285,0,-0.0013,-0.0013,-0.0007,0.0001,-0.0002,0.0017,0.0037,0.005,0.0052,0.0045,0.0035,0.0012,0.0014,-0.0002,-0.0023,-0.0119,-0.0144,-0.0093,-0.0296,-0.0302,-0.0239,-0.0196,-0.0193,-0.0281,-0.0293,-0.0294,-0.0295,0,-0.0053,-0.0043,-0.0036,-0.0012,-0.0009,0.0011,0.0035,0.0053,0.0068,0.0069,0.0071,0.0046,0.003,0.0013,-0.0092,-0.0064,-0.0136,-0.0202,-0.0209,-0.0199,-0.0249,-0.0326,-0.0295,-0.0308,-0.0307,-0.0306,-0.0305,0,-0.0093,-0.0079,-0.0072,-0.0063,-0.0021,-0.0,0.0027,0.0057,0.0079,0.0086,0.009,0.0057,0.0037,-0.0051,-0.0122,-0.0129,-0.0255,-0.03,-0.0307,-0.0305,-0.0367,-0.0366,-0.0379,-0.0379,-0.0379,-0.0379,-0.0378,0,-0.0137,-0.0129,-0.0082,-0.0071,-0.0035,-0.0009,0.0031,0.006,0.0083,0.0117,0.0106,0.0114,0.0018,-0.0045,-0.0131,-0.0214,-0.0263,-0.0283,-0.0322,-0.0318,-0.0312,-0.0396,-0.0396,-0.0383,-0.0382,-0.0381,-0.038,0,-0.016,-0.0151,-0.012,-0.0068,-0.0047,-0.0006,0.0068,0.0099,0.0112,0.015,0.0157,0.0138,0.0079,-0.001,-0.0162,-0.0215,-0.0321,-0.0343,-0.0308,-0.0336,-0.0337,-0.033,-0.0385,-0.0383,-0.0382,-0.0381,-0.038,0,-0.0155,-0.015,-0.0088,-0.0048,-0.0009,0.0048,0.0099,0.0127,0.016,0.0179,0.0196,0.0158,0.018,0.0015,-0.0114,-0.0245,-0.0278,-0.033,-0.0324,-0.0302,-0.0336,-0.0331,-0.0326,-0.0372,-0.0371,-0.0371,-0.037,0,-0.0112,-0.0098,-0.0054,0.0013,0.0071,0.0132,0.0194,0.0212,0.0244,0.0275,0.0308,0.0323,0.0209,0.0103,-0.0051,-0.015,-0.0301,-0.0314,-0.0343,-0.0335,-0.0289,-0.0322,-0.0319,-0.0363,-0.0364,-0.0364,-0.0365,-0.0365,-0.0048,-0.0008,0.0038,0.0104,0.0163,0.0219,0.0265,0.0316,0.0371,0.0433,0.0413,0.0442,0.0284,0.012,-0.0026,-0.0199,-0.0217,-0.0301,-0.0305,-0.031,-0.0253,-0.0203,-0.0251,-0.0252,-0.0252,-0.0252,-0.0252,0,0.0041,0.0073,0.0134,0.0201,0.0263,0.0279,0.0339,0.0385,0.046,0.0521,0.0581,0.0457,0.0348,0.0174,-0.0067,-0.0199,-0.024,-0.0243,-0.0287,-0.0293,-0.0298,-0.0242,-0.0238,-0.0238,-0.0237,-0.0237,0,0,0.0097,0.0159,0.0171,0.0276,0.0327,0.0399,0.0431,0.0504,0.055,0.0628,0.064,0.0641,0.0399,0.0231,0.0032,-0.0097,-0.0156,-0.0119,-0.0123,-0.0157,-0.016,-0.0332,-0.025,0,0,0,0,0]}],[{"header":{"parameterUnit":"m.s-1","parameterCategory":2,"la1":30.2991,"la2":30.254,"lo1":-89.0895,"lo2":-89.0444,"dy":0.0017,"dx":0.0017,"nx":28,"ny":28,"refTime":"2024-08-11T03:00:00:Z","depth":"4","parameterNumber":2,"parameterNumberName":"U-component_of_CURRENTS"},"data":[0,0,0,0,0,0,0,0,0,0,0,0,0,0,0,0,0,0,0,0,0,0,0,0,0,0,0,0,0,0,0,0,0,0,0,0,0,0,0,0,0,0,0,0,0,0,0,0,0,0,0,0,0,0,0,0,0,0,0.0322,0.0322,0,0.0392,0.0393,0.0394,0.0452,0.0453,0.0453,0.0453,0.045,0.045,0.0449,0,0,0,0,0,0,0,0,0,0,0,0,0,0.0228,0.023,0.0322,0.0322,0.0323,0.0391,0.0393,0.0394,0.0452,0.0453,0.0453,0.0453,0.045,0.045,0.0449,0,0,0,0,0,0,0,0,0,0,0,0,0,0.0284,0.0231,0.0322,0.0357,0.0361,0.0391,0.0393,0.0394,0.0452,0.0453,0.0453,0.0454,0.045,0.045,0.0449,0.0437,0,0,0.0447,0.0447,0,0,0,0,0,0,0,0,0.0281,0.0288,0.0352,0.0355,0.0359,0.041,0.0358,0.0404,0.0452,0.0422,0.0453,0.0454,0.0427,0.0429,0.0447,0.0437,0.0437,0.0447,0.0447,0.0447,0.0447,0,0,0,0,0,0,0,0.0277,0.0285,0.0353,0.0352,0.0357,0.0366,0.0375,0.0368,0.0423,0.0424,0.0428,0.0429,0.0429,0.0448,0.0447,0.0437,0.0447,0.0447,0.0447,0.0446,0.0534,0.0536,0,0,0,0,0,0,0.0261,0.0282,0.0351,0.0355,0.0316,0.0367,0.0377,0.0397,0.0424,0.0429,0.0429,0.0432,0.0448,0.0448,0.0447,0.0485,0.0447,0.0446,0.0446,0.0531,0.0534,0.0537,0,0,0,0,0,0,0.0259,0.0267,0.0348,0.0316,0.0326,0.0368,0.0389,0.0398,0.043,0.0428,0.0432,0.0453,0.0449,0.0448,0.046,0.0483,0.0446,0.0446,0.0528,0.0532,0.0536,0.0528,0,0,0,0,0,0,0.0257,0.0267,0.0279,0.0315,0.0327,0.0372,0.0389,0.0398,0.0427,0.0432,0.0449,0.0449,0.0449,0.0461,0.046,0.0482,0.0445,0.0525,0.053,0.0535,0.0525,0.0532,0.0537,0,0,0,0,0,0.0253,0.0259,0.028,0.0288,0.0342,0.0372,0.038,0.0412,0.0428,0.0444,0.0462,0.045,0.0494,0.0462,0.046,0.0482,0.0522,0.0529,0.0534,0.0523,0.053,0.0537,0,0,0,0,0,0,0.0223,0.0267,0.029,0.031,0.0343,0.038,0.0403,0.0418,0.0448,0.0459,0.0458,0.046,0.0482,0.0494,0.0459,0.0533,0.0516,0.0522,0.0508,0.0515,0.0521,0.05,0.0445,0,0,0,0,0,0.0222,0.0243,0.0285,0.0303,0.0329,0.037,0.0388,0.041,0.0436,0.0452,0.0469,0.0495,0.0505,0.0517,0.0529,0.0553,0.0549,0.0581,0.0587,0.0591,0.058,0.059,0.0594,0.0557,0.0557,0.0557,0,0,0.0216,0.024,0.0255,0.0298,0.0339,0.0358,0.0385,0.0421,0.0429,0.0442,0.0478,0.0502,0.0515,0.0547,0.0562,0.0558,0.0607,0.0599,0.0602,0.0588,0.0596,0.0599,0.0602,0.0561,0.056,0.056,0,0,0.0201,0.0247,0.026,0.0288,0.0336,0.036,0.037,0.0426,0.0455,0.0485,0.05,0.0535,0.0569,0.0582,0.0588,0.0635,0.0628,0.0667,0.068,0.069,0.0692,0.0693,0.0705,0.0707,0.0681,0.0681,0.0681,0,0.0195,0.0219,0.0266,0.0282,0.0304,0.0359,0.0375,0.0402,0.045,0.0479,0.05,0.0568,0.0579,0.0594,0.0628,0.064,0.0653,0.0639,0.0691,0.0693,0.0694,0.0706,0.0708,0.0681,0.0681,0.0681,0.0681,0,0.018,0.021,0.0227,0.0266,0.0291,0.0322,0.0362,0.0404,0.0454,0.0485,0.054,0.0568,0.0615,0.0637,0.0642,0.0674,0.0683,0.0681,0.0656,0.0696,0.0708,0.071,0.0681,0.0681,0.0681,0.0681,0,0,0.015,0.0208,0.0215,0.0247,0.0294,0.032,0.0345,0.0397,0.043,0.0491,0.0528,0.0574,0.0622,0.0634,0.0658,0.0674,0.0702,0.0695,0.0695,0.0676,0.0734,0.0673,0.0669,0.0712,0.0712,0.0713,0.0742,0,0.0138,0.0166,0.0188,0.0225,0.0262,0.0314,0.0334,0.0381,0.0438,0.049,0.0534,0.058,0.0609,0.0648,0.0666,0.0685,0.0708,0.0694,0.0726,0.0727,0.064,0.0669,0.0714,0.0744,0.0744,0.0745,0.0745,0,0.0119,0.0146,0.0183,0.0246,0.0268,0.0287,0.0364,0.0389,0.0453,0.0498,0.0551,0.059,0.0627,0.0647,0.069,0.0686,0.0718,0.0729,0.073,0.0669,0.0668,0.0699,0.0749,0.0749,0.0749,0.0748,0.0748,0,0.0098,0.0147,0.0185,0.0205,0.0271,0.0307,0.0347,0.0411,0.0458,0.0512,0.0556,0.0592,0.0641,0.0658,0.0699,0.0709,0.0728,0.0742,0.0712,0.0708,0.0754,0.0753,0.0771,0.0771,0.077,0.077,0.077,0,0.0087,0.0119,0.0191,0.0217,0.027,0.0317,0.0384,0.0421,0.0486,0.0527,0.0575,0.06,0.0654,0.0676,0.069,0.0697,0.0728,0.0707,0.0707,0.0757,0.0755,0.0756,0.0754,0.0772,0.0771,0.0771,0.0771,0,0.0068,0.0113,0.0164,0.0241,0.0271,0.0317,0.0413,0.0452,0.0516,0.0563,0.0584,0.064,0.0664,0.0687,0.0716,0.0703,0.0694,0.0693,0.0738,0.0742,0.0677,0.0675,0.0669,0.0667,0.0665,0.0664,0.0663,0,0.0063,0.0089,0.0179,0.0218,0.0262,0.0341,0.0384,0.046,0.0487,0.0569,0.0567,0.0635,0.0658,0.0646,0.0666,0.0667,0.0671,0.0663,0.0676,0.0663,0.0665,0.0666,0.0666,0.066,0.066,0.0659,0.0659,0,0.0049,0.0087,0.0127,0.0203,0.0263,0.0319,0.038,0.0407,0.0474,0.0537,0.0557,0.0582,0.0609,0.0619,0.0627,0.0623,0.0653,0.0645,0.065,0.0663,0.0652,0.0656,0.0658,0.0653,0.0653,0.0654,0.0654,0,0.0038,0.0053,0.0111,0.0174,0.0249,0.0282,0.0321,0.0359,0.0407,0.0489,0.0487,0.0541,0.0597,0.0596,0.0581,0.0582,0.0597,0.0583,0.0591,0.0598,0.0558,0.0533,0.0491,0,0,0,0,0,0.0031,0.0035,0.0077,0.0135,0.0208,0.0246,0.0307,0.0337,0.0401,0.0404,0.0456,0.047,0.05,0.0519,0.0512,0.0544,0.0584,0.0531,0.0568,0.0619,0.0626,0.0583,0,0,0,0,0,0,0.0018,0.0051,0.0053,0.01,0.0136,0.0188,0.0231,0.0262,0.027,0.0346,0.0366,0.0429,0.046,0.05,0.0499,0.0505,0.0516,0.0569,0.0568,0.0615,0.0621,0.0627,0.0586,0,0,0,0,0]},{"header":{"parameterUnit":"m.s-1","parameterCategory":2,"la1":30.2991,"la2":30.254,"lo1":-89.0895,"lo2":-89.0444,"dy":0.0017,"dx":0.0017,"nx":28,"ny":28,"refTime":"2024-08-11T03:00:00:Z","depth":"4","parameterNumber":3,"parameterNumberName":"V-component_of_CURRENTS"},"data":[0,0,0,0,0,0,0,0,0,0,0,0,0,0,0,0,0,0,0,0,0,0,0,0,0,0,0,0,0,0,0,0,0,0,0,0,0,0,0,0,0,0,0,0,0,0,0,0,0,0,0,0,0,0,0,0,0,0,0.0282,0.0282,0,0.0269,0.0269,0.0268,0.0297,0.0298,0.0299,0.03,0.0259,0.0257,0.0255,0,0,0,0,0,0,0,0,0,0,0,0,0,0.029,0.0289,0.0282,0.0282,0.0282,0.0269,0.0269,0.0268,0.0297,0.0298,0.03,0.0301,0.0259,0.0257,0.0254,0,0,0,0,0,0,0,0,0,0,0,0,0,0.0281,0.0289,0.0282,0.0296,0.0297,0.0269,0.0269,0.0268,0.0297,0.0298,0.03,0.0301,0.026,0.0257,0.0254,0.0203,0,0,0.0245,0.0243,0,0,0,0,0,0,0,0,0.0282,0.0281,0.0294,0.0295,0.0296,0.0287,0.0256,0.0246,0.0296,0.0295,0.03,0.0302,0.0265,0.0262,0.0255,0.0202,0.02,0.0244,0.0242,0.0241,0.024,0,0,0,0,0,0,0,0.0282,0.0281,0.0276,0.0294,0.0295,0.0288,0.0289,0.0254,0.027,0.0296,0.0298,0.0298,0.0266,0.0257,0.0254,0.0199,0.0244,0.0242,0.024,0.0238,0.0058,0.0055,0,0,0,0,0,0,0.0287,0.0282,0.0276,0.0275,0.0294,0.0287,0.0288,0.0288,0.0271,0.0271,0.0297,0.0299,0.0262,0.0257,0.0252,0.0159,0.0241,0.0238,0.0236,0.0061,0.0057,0.0054,0,0,0,0,0,0,0.0287,0.0286,0.0277,0.0279,0.0278,0.0285,0.0285,0.0286,0.0283,0.0273,0.0272,0.0293,0.0263,0.0257,0.0211,0.0159,0.0237,0.0234,0.0064,0.0059,0.0055,-0.0008,0,0,0,0,0,0,0.0287,0.0286,0.0282,0.028,0.0278,0.0246,0.0283,0.0285,0.0281,0.0285,0.0269,0.0267,0.0264,0.0215,0.0207,0.0156,0.0232,0.0068,0.0062,0.0057,-0.0002,-0.0014,-0.0024,0,0,0,0,0,0.0287,0.0266,0.0282,0.0281,0.0273,0.0245,0.0242,0.0252,0.028,0.0259,0.0253,0.0267,0.0174,0.021,0.0202,0.0148,0.007,0.0064,0.0057,0.0002,-0.0012,-0.0024,0,0,0,0,0,0,0.0263,0.0267,0.0284,0.0265,0.0254,0.025,0.0233,0.0247,0.0227,0.0235,0.0236,0.0231,0.0171,0.0162,0.0202,0.0076,0.0121,0.0112,0.0082,0.0068,0.0058,0.0063,0.0229,0,0,0,0,0,0.0257,0.0242,0.0247,0.0228,0.0225,0.0232,0.0223,0.0231,0.0218,0.0213,0.02,0.0174,0.0133,0.0107,0.0075,0.0006,0.0031,-0.0039,-0.005,-0.0059,-0.0063,-0.0066,-0.0077,0.0032,0.0032,0.0032,0,0,0.0239,0.0241,0.0232,0.0222,0.0219,0.0189,0.023,0.021,0.018,0.0207,0.0155,0.0141,0.0108,0.0035,0.0005,0.0023,-0.0078,-0.0067,-0.0074,-0.0074,-0.0074,-0.0084,-0.0093,0.0028,0.0029,0.0029,0,0,0.0186,0.0203,0.0171,0.0159,0.0153,0.0154,0.0149,0.014,0.0133,0.0078,0.0091,0.005,-0.0019,-0.0049,-0.0074,-0.017,-0.0129,-0.0191,-0.025,-0.0254,-0.0262,-0.0268,-0.0243,-0.0246,-0.0205,-0.0205,-0.0205,0,0.0163,0.0149,0.0152,0.0118,0.0119,0.0136,0.0111,0.008,0.0054,0.0047,0.0048,-0.0034,-0.0063,-0.0137,-0.0183,-0.0194,-0.0174,-0.0191,-0.0264,-0.027,-0.0276,-0.0248,-0.0251,-0.0209,-0.0208,-0.0208,-0.0207,0,0.009,0.0084,0.0063,0.0037,0.0018,0.0006,-0.0017,-0.0042,-0.0042,-0.0057,-0.0116,-0.0156,-0.0193,-0.0233,-0.0248,-0.0316,-0.028,-0.0265,-0.0219,-0.029,-0.0257,-0.0259,-0.0214,-0.0213,-0.0212,-0.0211,0,0,0.0063,0.0024,0.0024,0.0037,-0.0,-0.0005,-0.0079,-0.0103,-0.0106,-0.0178,-0.0189,-0.0307,-0.0294,-0.0323,-0.0339,-0.0374,-0.041,-0.0352,-0.035,-0.0305,-0.0394,-0.0372,-0.0371,-0.04,-0.0401,-0.0402,-0.035,0,0.0031,-0.0007,-0.0038,-0.0059,-0.0049,-0.0068,-0.0119,-0.0154,-0.0176,-0.0196,-0.0256,-0.0281,-0.034,-0.0337,-0.0395,-0.0385,-0.0421,-0.0424,-0.035,-0.0348,-0.0303,-0.0376,-0.0406,-0.0352,-0.0352,-0.0352,-0.0352,0,0.0011,0.0001,-0.0021,-0.0017,-0.0019,-0.0056,-0.0055,-0.0105,-0.0163,-0.0179,-0.0239,-0.026,-0.0337,-0.0355,-0.0417,-0.041,-0.0424,-0.0429,-0.0426,-0.0384,-0.0331,-0.0271,-0.0356,-0.0355,-0.0355,-0.0355,-0.0355,0,0.0089,0.0043,0.0052,0.0045,0.0006,-0.0009,-0.0033,-0.0088,-0.0096,-0.0151,-0.0144,-0.0237,-0.0243,-0.0308,-0.0362,-0.0377,-0.0393,-0.0397,-0.0393,-0.0389,-0.0388,-0.0382,-0.0445,-0.0445,-0.0445,-0.0445,-0.0446,0,0.0123,0.0135,0.0097,0.0105,0.0115,0.0066,0.0069,0.0021,-0.0012,-0.002,-0.0113,-0.0126,-0.0233,-0.0265,-0.0331,-0.0365,-0.0367,-0.0415,-0.0388,-0.0417,-0.0415,-0.0388,-0.0382,-0.0443,-0.0444,-0.0444,-0.0445,0,0.0191,0.0174,0.019,0.0159,0.0155,0.0159,0.013,0.013,0.0095,0.0086,0.0074,-0.0017,-0.0081,-0.0167,-0.0237,-0.0291,-0.0336,-0.0345,-0.0348,-0.0319,-0.0334,-0.0332,-0.0336,-0.0336,-0.0335,-0.0334,-0.0334,0,0.0203,0.0226,0.023,0.024,0.0218,0.0222,0.0218,0.0181,0.0175,0.0143,0.0139,0.0086,0.0009,-0.0062,-0.0171,-0.0266,-0.0296,-0.0294,-0.0373,-0.0356,-0.0329,-0.0329,-0.0329,-0.0332,-0.0332,-0.0332,-0.0332,0,0.0219,0.0237,0.0241,0.0277,0.0284,0.0289,0.0279,0.0291,0.0246,0.0245,0.0196,0.0124,0.0062,-0.0056,-0.0115,-0.0199,-0.0287,-0.0287,-0.029,-0.0364,-0.0351,-0.0325,-0.0326,-0.0329,-0.033,-0.033,-0.033,0,0.0223,0.0231,0.0261,0.0284,0.0316,0.0323,0.0318,0.0301,0.0298,0.0256,0.0246,0.015,0.0096,-0.0018,-0.0083,-0.0153,-0.0195,-0.022,-0.0227,-0.0231,-0.0239,-0.0208,-0.0131,0,0,0,0,0,0.0215,0.023,0.0257,0.0281,0.0322,0.0335,0.0339,0.0329,0.0314,0.0288,0.0265,0.0192,0.0073,0.0013,-0.0056,-0.0086,-0.0209,-0.0168,-0.0242,-0.0315,-0.0318,-0.0346,0,0,0,0,0,0,0.0208,0.024,0.0252,0.0285,0.0305,0.033,0.0336,0.0318,0.0297,0.0278,0.0209,0.019,0.0065,0.0113,-0.0053,-0.0075,-0.0128,-0.0223,-0.0224,-0.0313,-0.0316,-0.0318,-0.0349,0,0,0,0,0]}]]